| time (UTC) | temp F | wind direction | speed MPH | gust MPH | rain 1hr in | rain 24hr in | rain mn in | humidity % | barometer mb |
| 20260508213118 | 68 | 264 | 1.0 | 5.0 | 0.00 | 0.05 | 0.00 | 44 | 1015.9 |
| 20260508212116 | 68 | 187 | 1.0 | 2.0 | 0.00 | 0.05 | 0.00 | 49 | 1015.6 |
| 20260508211130 | 68 | 187 | 2.0 | 4.0 | 0.00 | 0.05 | 0.00 | 45 | 1015.6 |
| 20260508210123 | 68 | 190 | 0.0 | 2.0 | 0.00 | 0.09 | 0.00 | 44 | 1015.8 |
| 20260508205132 | 68 | 298 | 1.0 | 4.0 | 0.00 | 0.09 | 0.00 | 42 | 1015.9 |
| 20260508204128 | 68 | 281 | 2.0 | 7.0 | 0.00 | 0.09 | 0.00 | 43 | 1015.9 |
| 20260508203120 | 69 | 288 | 2.0 | 5.0 | 0.00 | 0.09 | 0.00 | 42 | 1016.3 |
| 20260508202131 | 69 | 277 | 2.0 | 5.0 | 0.00 | 0.09 | 0.00 | 40 | 1016.5 |
| 20260508201145 | 69 | 182 | 1.0 | 5.0 | 0.00 | 0.09 | 0.00 | 38 | 1016.4 |
| 20260508200120 | 69 | 181 | 1.0 | 4.0 | 0.00 | 0.09 | 0.00 | 39 | 1016.6 |
| 20260508195132 | 69 | 121 | 1.0 | 5.0 | 0.00 | 0.09 | 0.00 | 38 | 1016.5 |
| 20260508194123 | 70 | 103 | 1.0 | 4.0 | 0.00 | 0.09 | 0.00 | 40 | 1016.5 |
| 20260508193118 | 70 | 177 | 3.0 | 5.0 | 0.00 | 0.09 | 0.00 | 38 | 1016.9 |
| 20260508192131 | 71 | 157 | 0.0 | 5.0 | 0.00 | 0.09 | 0.00 | 38 | 1017.0 |
| 20260508191124 | 70 | 275 | 0.0 | 4.0 | 0.00 | 0.09 | 0.00 | 40 | 1017.1 |
| 20260508190138 | 71 | 165 | 1.0 | 6.0 | 0.00 | 0.09 | 0.00 | 35 | 1017.2 |
| 20260508185133 | 70 | 184 | 2.0 | 6.0 | 0.00 | 0.09 | 0.00 | 37 | 1017.3 |
| 20260508184125 | 69 | 282 | 2.0 | 5.0 | 0.00 | 0.09 | 0.00 | 39 | 1017.4 |
| 20260508183117 | 69 | 117 | 1.0 | 5.0 | 0.00 | 0.09 | 0.00 | 39 | 1017.5 |
| 20260508182130 | 69 | 88 | 2.0 | 5.0 | 0.00 | 0.09 | 0.00 | 40 | 1017.7 |
| 20260508181127 | 69 | 290 | 4.0 | 6.0 | 0.00 | 0.09 | 0.00 | 36 | 1017.9 |
| 20260508180119 | 69 | 135 | 2.0 | 6.0 | 0.00 | 0.09 | 0.00 | 39 | 1017.8 |
| 20260508175129 | 69 | 113 | 3.0 | 7.0 | 0.00 | 0.09 | 0.00 | 47 | 1018.0 |
| 20260508174124 | 69 | 208 | 1.0 | 6.0 | 0.00 | 0.09 | 0.00 | 39 | 1018.2 |
| 20260508173154 | 68 | 24 | 1.0 | 5.0 | 0.00 | 0.09 | 0.00 | 40 | 1018.2 |
| 20260508172125 | 68 | 130 | 1.0 | 4.0 | 0.00 | 0.09 | 0.00 | 45 | 1018.3 |
| 20260508171139 | 67 | 158 | 2.0 | 3.0 | 0.00 | 0.09 | 0.00 | 43 | 1018.3 |
| 20260508170150 | 66 | 105 | 2.0 | 5.0 | 0.00 | 0.09 | 0.00 | 47 | 1018.4 |
| 20260508165144 | 66 | 125 | 3.0 | 5.0 | 0.00 | 0.09 | 0.00 | 48 | 1018.6 |
| 20260508164116 | 66 | 311 | 2.0 | 5.0 | 0.00 | 0.09 | 0.00 | 45 | 1018.9 |
| 20260508163149 | 66 | 153 | 2.0 | 6.0 | 0.00 | 0.09 | 0.00 | 45 | 1019.1 |
| 20260508162120 | 66 | 138 | 0.0 | 2.0 | 0.00 | 0.09 | 0.00 | 47 | 1019.2 |
| 20260508161117 | 66 | 138 | 2.0 | 5.0 | 0.00 | 0.09 | 0.00 | 44 | 1019.3 |
| 20260508160129 | 65 | 129 | 2.0 | 5.0 | 0.00 | 0.12 | 0.00 | 47 | 1019.3 |
| 20260508155138 | 64 | 75 | 0.0 | 4.0 | 0.00 | 0.12 | 0.00 | 55 | 1019.4 |
| 20260508154150 | 63 | 185 | 3.0 | 6.0 | 0.00 | 0.12 | 0.00 | 51 | 1019.6 |
| 20260508153145 | 62 | 123 | 0.0 | 2.0 | 0.00 | 0.12 | 0.00 | 60 | 1019.7 |
| 20260508152117 | 62 | 169 | 1.0 | 5.0 | 0.00 | 0.12 | 0.00 | 58 | 1019.8 |
| 20260508151130 | 61 | 130 | 1.0 | 5.0 | 0.00 | 0.12 | 0.00 | 61 | 1019.8 |
| 20260508150142 | 60 | 175 | 1.0 | 4.0 | 0.00 | 0.17 | 0.00 | 65 | 1019.8 |
| 20260508145135 | 59 | 115 | 1.0 | 2.0 | 0.00 | 0.17 | 0.00 | 68 | 1019.8 |
| 20260508144127 | 58 | 115 | 1.0 | 2.0 | 0.00 | 0.17 | 0.00 | 76 | 1019.8 |
| 20260508143121 | 58 | 115 | 0.0 | 4.0 | 0.00 | 0.17 | 0.00 | 72 | 1019.7 |
| 20260508142115 | 57 | 56 | 0.0 | 4.0 | 0.00 | 0.17 | 0.00 | 73 | 1019.7 |
| 20260508141133 | 56 | 56 | 1.0 | 2.0 | 0.00 | 0.17 | 0.00 | 81 | 1019.7 |
| 20260508140126 | 55 | 56 | 0.0 | 0.0 | 0.00 | 0.23 | 0.00 | 85 | 1019.7 |
| 20260508135136 | 54 | 56 | 0.0 | 2.0 | 0.00 | 0.23 | 0.00 | 83 | 1019.6 |
| 20260508134150 | 54 | 53 | 0.0 | 1.0 | 0.00 | 0.23 | 0.00 | 93 | 1019.6 |
| 20260508133126 | 52 | 54 | 0.0 | 0.0 | 0.00 | 0.23 | 0.00 | 94 | 1019.4 |
| 20260508132118 | 51 | 57 | 0.0 | 1.0 | 0.00 | 0.23 | 0.00 | 93 | 1019.3 |
| 20260508131150 | 51 | 57 | 0.0 | 1.0 | 0.00 | 0.23 | 0.00 | 93 | 1019.4 |
| 20260508130123 | 50 | 46 | 0.0 | 1.0 | 0.00 | 0.38 | 0.00 | 95 | 1019.3 |
| 20260508125118 | 50 | 146 | 0.0 | 0.0 | 0.00 | 0.38 | 0.00 | 96 | 1019.3 |
| 20260508124131 | 49 | 146 | 0.0 | 0.0 | 0.00 | 0.38 | 0.00 | 96 | 1019.2 |
| 20260508123124 | 48 | 146 | 0.0 | 0.0 | 0.00 | 0.38 | 0.00 | 96 | 1019.1 |
| 20260508122120 | 48 | 146 | 0.0 | 0.0 | 0.00 | 0.38 | 0.00 | 97 | 1019.1 |
| 20260508121154 | 47 | 146 | 0.0 | 0.0 | 0.00 | 0.38 | 0.00 | 97 | 1018.9 |
| 20260508120145 | 47 | 146 | 0.0 | 0.0 | 0.00 | 0.38 | 0.00 | 97 | 1018.7 |
| 20260508115135 | 46 | 146 | 0.0 | 1.0 | 0.00 | 0.38 | 0.00 | 97 | 1018.6 |
| 20260508114130 | 45 | 146 | 0.0 | 1.0 | 0.00 | 0.38 | 0.00 | 97 | 1018.6 |
| 20260508113124 | 45 | 146 | 0.0 | 0.0 | 0.00 | 0.38 | 0.00 | 96 | 1018.4 |
| 20260508112156 | 44 | 146 | 0.0 | 0.0 | 0.00 | 0.38 | 0.00 | 96 | 1018.3 |
| 20260508111147 | 44 | 146 | 0.0 | 0.0 | 0.00 | 0.38 | 0.00 | 96 | 1018.1 |
| 20260508110122 | 44 | 146 | 0.0 | 1.0 | 0.00 | 0.39 | 0.00 | 96 | 1017.8 |
| 20260508105153 | 44 | 144 | 0.0 | 1.0 | 0.00 | 0.39 | 0.00 | 96 | 1017.7 |
| 20260508104143 | 45 | 329 | 0.0 | 1.0 | 0.00 | 0.39 | 0.00 | 96 | 1017.6 |
| 20260508103115 | 45 | 329 | 0.0 | 0.0 | 0.00 | 0.39 | 0.00 | 96 | 1017.6 |
| 20260508102147 | 45 | 329 | 0.0 | 0.0 | 0.00 | 0.39 | 0.00 | 96 | 1017.5 |
| 20260508101120 | 44 | 329 | 0.0 | 0.0 | 0.00 | 0.39 | 0.00 | 95 | 1017.2 |
| 20260508100131 | 45 | 329 | 0.0 | 0.0 | 0.00 | 0.39 | 0.00 | 95 | 1017.3 |
| 20260508095122 | 45 | 329 | 0.0 | 0.0 | 0.00 | 0.39 | 0.00 | 95 | 1016.9 |
| 20260508094155 | 45 | 329 | 0.0 | 0.0 | 0.00 | 0.39 | 0.00 | 95 | 1016.8 |
| 20260508093131 | 46 | 329 | 0.0 | 0.0 | 0.00 | 0.39 | 0.00 | 95 | 1016.7 |
| 20260508092143 | 46 | 329 | 0.0 | 0.0 | 0.00 | 0.39 | 0.00 | 96 | 1016.8 |
| 20260508091115 | 46 | 329 | 0.0 | 0.0 | 0.00 | 0.39 | 0.00 | 96 | 1016.7 |
| 20260508090127 | 46 | 329 | 0.0 | 0.0 | 0.00 | 0.40 | 0.00 | 96 | 1016.7 |
| 20260508085122 | 47 | 329 | 0.0 | 0.0 | 0.00 | 0.40 | 0.00 | 96 | 1016.6 |
| 20260508084135 | 47 | 329 | 0.0 | 0.0 | 0.00 | 0.40 | 0.00 | 96 | 1016.4 |
| 20260508083126 | 47 | 329 | 0.0 | 0.0 | 0.00 | 0.40 | 0.00 | 96 | 1016.3 |
| 20260508082141 | 46 | 329 | 0.0 | 0.0 | 0.00 | 0.40 | 0.00 | 96 | 1016.2 |
| 20260508081134 | 47 | 329 | 0.0 | 1.0 | 0.00 | 0.40 | 0.00 | 95 | 1016.1 |
| 20260508080143 | 47 | 329 | 0.0 | 0.0 | 0.00 | 0.40 | 0.00 | 96 | 1016.1 |
| 20260508075133 | 47 | 329 | 0.0 | 0.0 | 0.00 | 0.40 | 0.00 | 96 | 1016.2 |
| 20260508074130 | 47 | 329 | 0.0 | 1.0 | 0.00 | 0.40 | 0.00 | 96 | 1016.1 |
| 20260508073121 | 47 | 329 | 0.0 | 0.0 | 0.00 | 0.40 | 0.00 | 96 | 1016.0 |
| 20260508072134 | 47 | 329 | 0.0 | 0.0 | 0.00 | 0.40 | 0.00 | 96 | 1016.0 |
| 20260508071126 | 47 | 329 | 0.0 | 0.0 | 0.00 | 0.40 | 0.00 | 96 | 1015.9 |
| 20260508070142 | 48 | 329 | 0.0 | 0.0 | 0.00 | 0.40 | 0.00 | 95 | 1015.8 |
| 20260508065153 | 48 | 329 | 0.0 | 0.0 | 0.00 | 0.40 | 0.00 | 96 | 1015.7 |
| 20260508064124 | 48 | 329 | 0.0 | 0.0 | 0.00 | 0.40 | 0.00 | 95 | 1015.6 |
| 20260508063117 | 48 | 329 | 0.0 | 1.0 | 0.00 | 0.40 | 0.00 | 96 | 1015.8 |
| 20260508062150 | 48 | 329 | 0.0 | 0.0 | 0.00 | 0.40 | 0.00 | 95 | 1015.6 |
| 20260508061126 | 48 | 329 | 0.0 | 0.0 | 0.00 | 0.40 | 0.00 | 96 | 1015.7 |
| 20260508060116 | 48 | 329 | 0.0 | 0.0 | 0.00 | 0.41 | 0.00 | 96 | 1015.6 |
| 20260508055126 | 49 | 329 | 0.0 | 0.0 | 0.00 | 0.41 | 0.00 | 96 | 1015.7 |
| 20260508054120 | 49 | 329 | 0.0 | 0.0 | 0.00 | 0.41 | 0.00 | 95 | 1015.7 |
| 20260508053132 | 49 | 329 | 0.0 | 0.0 | 0.00 | 0.41 | 0.00 | 95 | 1015.6 |
| 20260508052145 | 49 | 329 | 0.0 | 0.0 | 0.00 | 0.41 | 0.00 | 96 | 1015.7 |
| 20260508051117 | 49 | 329 | 0.0 | 0.0 | 0.00 | 0.41 | 0.00 | 96 | 1015.6 |
| 20260508050134 | 49 | 329 | 0.0 | 1.0 | 0.00 | 0.41 | 0.00 | 95 | 1015.4 |
| 20260508045144 | 50 | 329 | 0.0 | 1.0 | 0.00 | 0.44 | 0.00 | 96 | 1015.5 |
| 20260508044155 | 50 | 329 | 0.0 | 0.0 | 0.00 | 0.44 | 0.00 | 96 | 1015.4 |
| 20260508043147 | 50 | 329 | 0.0 | 0.0 | 0.00 | 0.44 | 0.00 | 95 | 1015.2 |
| 20260508042138 | 50 | 329 | 0.0 | 0.0 | 0.00 | 0.44 | 0.00 | 96 | 1015.2 |
| 20260508041135 | 50 | 329 | 0.0 | 0.0 | 0.00 | 0.44 | 0.00 | 96 | 1015.1 |
| 20260508040128 | 50 | 329 | 0.0 | 0.0 | 0.00 | 0.51 | 0.44 | 95 | 1015.1 |
| 20260508035115 | 51 | 329 | 0.0 | 0.0 | 0.00 | 0.51 | 0.44 | 95 | 1015.2 |
| 20260508034149 | 51 | 329 | 0.0 | 0.0 | 0.00 | 0.51 | 0.44 | 95 | 1014.9 |
| 20260508033125 | 51 | 329 | 0.0 | 0.0 | 0.00 | 0.51 | 0.44 | 96 | 1014.8 |
| 20260508032137 | 52 | 329 | 0.0 | 0.0 | 0.00 | 0.51 | 0.44 | 96 | 1014.8 |
| 20260508031131 | 52 | 329 | 0.0 | 0.0 | 0.00 | 0.51 | 0.44 | 95 | 1014.7 |
| 20260508030129 | 52 | 329 | 0.0 | 0.0 | 0.00 | 0.52 | 0.44 | 95 | 1014.6 |
| 20260508025118 | 53 | 329 | 0.0 | 0.0 | 0.00 | 0.52 | 0.44 | 95 | 1014.7 |
| 20260508024132 | 53 | 329 | 0.0 | 1.0 | 0.00 | 0.52 | 0.44 | 95 | 1014.6 |
| 20260508023124 | 53 | 329 | 0.0 | 0.0 | 0.00 | 0.52 | 0.44 | 96 | 1014.4 |
| 20260508022122 | 54 | 329 | 0.0 | 0.0 | 0.00 | 0.52 | 0.44 | 96 | 1014.2 |
| 20260508021135 | 54 | 329 | 0.0 | 1.0 | 0.00 | 0.52 | 0.44 | 95 | 1014.3 |
| 20260508020127 | 54 | 329 | 0.0 | 1.0 | 0.00 | 0.52 | 0.44 | 96 | 1014.1 |
| 20260508015123 | 54 | 329 | 0.0 | 0.0 | 0.00 | 0.52 | 0.44 | 96 | 1013.8 |
| 20260508014155 | 55 | 329 | 0.0 | 0.0 | 0.00 | 0.52 | 0.44 | 96 | 1013.7 |
| 20260508013127 | 55 | 329 | 0.0 | 0.0 | 0.00 | 0.52 | 0.44 | 96 | 1013.6 |
| 20260508012119 | 55 | 329 | 0.0 | 0.0 | 0.00 | 0.52 | 0.44 | 96 | 1013.2 |
| 20260508011131 | 55 | 329 | 0.0 | 0.0 | 0.00 | 0.52 | 0.44 | 96 | 1013.2 |
| 20260508010147 | 55 | 329 | 0.0 | 0.0 | 0.00 | 0.52 | 0.44 | 96 | 1013.0 |
| 20260508005155 | 56 | 329 | 0.0 | 0.0 | 0.00 | 0.52 | 0.44 | 96 | 1013.0 |
| 20260508004147 | 56 | 329 | 0.0 | 0.0 | 0.00 | 0.52 | 0.44 | 96 | 1013.0 |
| 20260508003118 | 56 | 329 | 0.0 | 0.0 | 0.00 | 0.52 | 0.44 | 96 | 1013.1 |
| 20260508002135 | 56 | 329 | 0.0 | 0.0 | 0.00 | 0.52 | 0.44 | 96 | 1013.0 |
| 20260508001126 | 56 | 329 | 0.0 | 0.0 | 0.00 | 0.52 | 0.44 | 96 | 1013.2 |
| 20260508000138 | 56 | 329 | 0.0 | 1.0 | 0.00 | 0.52 | 0.44 | 96 | 1013.1 |
| 20260507235128 | 56 | 329 | 0.0 | 0.0 | 0.00 | 0.52 | 0.44 | 96 | 1012.6 |
| 20260507234125 | 56 | 329 | 0.0 | 0.0 | 0.01 | 0.52 | 0.44 | 96 | 1012.5 |
| 20260507233117 | 56 | 329 | 0.0 | 1.0 | 0.01 | 0.52 | 0.44 | 96 | 1012.2 |
| 20260507232128 | 56 | 57 | 0.0 | 1.0 | 0.01 | 0.52 | 0.44 | 96 | 1012.1 |
| 20260507231125 | 56 | 57 | 0.0 | 1.0 | 0.01 | 0.52 | 0.44 | 96 | 1012.0 |
| 20260507230117 | 55 | 57 | 0.0 | 2.0 | 0.01 | 0.52 | 0.44 | 96 | 1011.9 |
| 20260507225147 | 55 | 57 | 1.0 | 2.0 | 0.01 | 0.52 | 0.44 | 96 | 1011.4 |
| 20260507224119 | 55 | 57 | 2.0 | 2.0 | 0.00 | 0.51 | 0.43 | 96 | 1011.6 |
| 20260507223151 | 56 | 57 | 1.0 | 2.0 | 0.03 | 0.51 | 0.43 | 96 | 1011.7 |
| 20260507222126 | 56 | 57 | 1.0 | 4.0 | 0.03 | 0.51 | 0.43 | 96 | 1011.7 |
| 20260507221120 | 56 | 60 | 1.0 | 4.0 | 0.03 | 0.51 | 0.43 | 96 | 1011.5 |
| 20260507220132 | 56 | 52 | 1.0 | 5.0 | 0.04 | 0.51 | 0.43 | 96 | 1011.3 |
| 20260507215125 | 56 | 80 | 1.0 | 4.0 | 0.04 | 0.51 | 0.43 | 96 | 1011.2 |
| 20260507214119 | 56 | 40 | 1.0 | 4.0 | 0.06 | 0.51 | 0.43 | 96 | 1011.1 |